Location: Windsor
(43.2292°N, 89.3015°W)
Time: 03:23:04
(UTC+00:00)

MOZHAYETS 4 - Pass Details

Date: 08 July 2022
Orbit: 660 x 679 km, 98.2° (Epoch: 13 August)

Event Time Altitude Azimuth Distance (km) Brightness Sun altitude
Exits shadow 08:06:51 18° 155° (SSE) 1,617 9.4 -18.3°
Maximum altitude 08:10:11 70° 74° (ENE) 717 7.9 -18.0°
Drops below altitude 10° 08:14:46 10° 351° (N) 2,105 11.0 -17.6°
Sets 08:17:00 0° 350° (N) 3,020 11.8 -17.4°
